Flag for Micronesia Weather past 2 weeks in Kolonia, Ponape, Micronesia

Now
81 °F

Mostly cloudy.


Feels Like: 88 °F
Forecast: 80 / 86 °F
Wind: 9 mph from East

Location: Pohnpei


UV Index: 3 (Moderate)

Visibility: 15 mi


Pressure: 29.88 "Hg

Humidity: 89%

Dew point: 77 °F

Location of KoloniaLocation

Historic Weather in Kolonia

°F

Kolonia temperature yesterday

Maximum temperature yesterday: 87 °F (at 12:53 PM)
Minimum temperature yesterday: 81 °F (at 1:51 AM)
Average temperature yesterday: 83 °F

Past Weeks' High & Low Weather Summary

 TemperatureHumidityPressure
High91 °F (Apr 16, 1:50 PM)98% (Apr 13, 3:55 AM)29.98 "Hg (Apr 13, 3:55 AM)
Low74 °F (Apr 15, 3:54 AM)60% (Apr 19, 4:54 PM)29.75 "Hg (Apr 9, 2:50 PM)
Average81 °F85%29.83 "Hg
* Reported Apr 6 11:56 PM — Apr 21 11:55 PM, Kolonia, Weather by CustomWeather, © 2014

Note: Actual official high and low records may vary slightly from our data, if they occured in-between our weather recording intervals... More about our weather records

Advertising

Historic Weather Conditions — Data for Previous 24 hours

 ConditionsComfort  
Time TempWeatherWind HumidityBarometerVisibility
11:55 PM
Apr 21
81 °FMostly cloudy.9 mph89%29.88 "Hg15 mi
10:55 PM82 °FMostly cloudy.12 mph84%29.88 "Hg15 mi
9:50 PM83 °FMostly cloudy.10 mph81%29.88 "Hg15 mi
8:52 PM83 °FMostly cloudy.9 mph81%29.86 "Hg15 mi
7:54 PM82 °FOvercast.7 mph84%29.85 "Hg15 mi
6:50 PM82 °FMostly cloudy.5 mph82%29.83 "Hg15 mi
5:55 PM82 °FMore clouds than sun.6 mph84%29.81 "Hg15 mi
4:55 PM82 °FOvercast.5 mph79%29.80 "Hg15 mi
3:52 PM84 °FCloudy.8 mph79%29.80 "Hg15 mi
2:54 PM84 °FCloudy.8 mph79%29.82 "Hg15 mi
1:51 PM84 °FMore clouds than sun.9 mph80%29.82 "Hg15 mi
12:53 PM87 °FMore clouds than sun.13 mph74%29.85 "Hg15 mi
11:51 AM87 °FMore clouds than sun.10 mph74%29.88 "Hg15 mi
10:55 AM87 °FCloudy.12 mph75%29.90 "Hg15 mi
8:55 AM85 °FCloudy.6 mph77%29.91 "Hg15 mi
7:52 AM84 °FBroken clouds.12 mph80%29.89 "Hg15 mi
6:54 AM82 °FBroken clouds.6 mph75%29.87 "Hg15 mi
5:53 AM82 °FOvercast.6 mph79%29.85 "Hg15 mi
4:53 AM82 °FPassing clouds.8 mph79%29.83 "Hg15 mi
3:54 AM82 °FPartly cloudy.7 mph79%29.83 "Hg15 mi
1:51 AM81 °FMostly cloudy.7 mph79%29.84 "Hg15 mi
12:53 AM82 °FMostly cloudy.5 mph75%29.85 "Hg15 mi
Weather by CustomWeather, © 2014

See weather overview